Home   Weather   Novato   Past weeks
Flag for USA

Past Weather in Novato, California, USA — Yesterday and Last 2 Weeks

Now
75 °F

Sunny.


Feels Like: 78 °F
Forecast: 84 / 51 °F
Wind: 14 mph from Southwest

Location: Napa County Airport

Current Time: Jul 23, 2019 at 6:12:27 pm

Latest Report: Jul 23, 2019 at 4:54 pm


Visibility: 10 mi

Pressure: 29.94 "Hg

Humidity: 55%

Dew Point: 58 °F

Location of NovatoLocation

Past Weather in Novato — Graph

°F

Novato Temperature Yesterday

Maximum temperature yesterday: 81 °F (at 2:54 pm)
Minimum temperature yesterday: 55 °F (at 5:54 am)
Average temperature yesterday: 66 °F

High & Low Weather Summary for the Past Weeks

 TemperatureHumidityPressure
High89 °F (Jul 16, 3:15 pm)100% (Jul 11, 4:54 am)30.07 "Hg (Jul 11, 4:54 am)
Low49 °F (Jul 9, 4:54 am)27% (Jul 16, 3:15 pm)29.77 "Hg (Jul 16, 5:54 pm)
Average65 °F75%29.91 "Hg
* Reported Jul 8 4:54 pm — Jul 23 4:54 pm, Novato. Weather by CustomWeather, © 2019

Note: Actual official high and low records may vary slightly from our data, if they occured in-between our weather recording intervals... More about our weather records

Advertising

Novato Weather History for the Previous 24 Hours

Scroll right to see more
 ConditionsComfort  
Time TempWeatherWind HumidityBarometerVisibility
4:54 pm
Tue, Jul 23
75 °FSunny.14 mph55%29.94 "Hg10 mi
3:54 pm76 °FSunny.16 mph56%29.95 "Hg10 mi
2:54 pm76 °FSunny.14 mph56%29.96 "Hg8 mi
1:54 pm76 °FSunny.14 mph56%29.97 "Hg10 mi
12:54 pm74 °FSunny.14 mph56%29.98 "Hg10 mi
11:54 am71 °FSunny.13 mph61%29.99 "Hg7 mi
10:54 am69 °FSunny.13 mph66%29.99 "Hg10 mi
9:54 am66 °FSunny.10 mph68%29.98 "Hg10 mi
8:54 am63 °FSunny.7 mph78%29.98 "Hg10 mi
7:54 am61 °FSunny.6 mph83%29.98 "Hg10 mi
7:04 am56 °FSunny.No wind97%29.99 "Hg10 mi
6:24 am51 °FFog.No wind100%29.99 "Hg4 mi
6:14 am54 °FFog.No wind93%29.99 "Hg2 mi
5:54 am54 °FFog.No wind97%29.95 "Hg4 mi
4:54 am57 °FFog.No wind90%29.95 "Hg5 mi
3:54 am58 °FFog.5 mph93%29.94 "Hg5 mi
2:54 am59 °FFog.10 mph90%29.94 "Hg5 mi
1:54 am59 °FFog.9 mph90%29.94 "Hg6 mi
12:54 am59 °FFog.7 mph93%29.94 "Hg6 mi
11:54 pm
Mon, Jul 22
60 °FFog.9 mph86%29.94 "Hg6 mi
10:54 pm60 °FFog.7 mph86%29.93 "Hg6 mi
9:54 pm61 °FFog.10 mph87%29.92 "Hg6 mi
8:54 pm63 °FClear.9 mph81%29.90 "Hg6 mi
7:54 pm67 °FSunny.10 mph71%29.89 "Hg5 mi
6:54 pm73 °FSunny.13 mph59%29.88 "Hg10 mi
Weather by CustomWeather, © 2019

See weather overview